Weather Roundup
Issued by NWS Chicago, IL

Home | Current Version | Previous Version | Text Only | Print | Product List | Glossary On
Versions: 1 2 3 4 5 6 7 8 9 10 11 12 13 14 15 16 17 18 19 20 21 22 23 24 25 26 27 28 29 30 31 32 33 34 35 36 37 38 39 40 41 42 43 44 45 46 47 48 49 50
000
NZUS59 KLOT 221600
HRRLOT

CHICAGO AREA WEATHER ROUNDUP
NATIONAL WEATHER SERVICE CHICAGO/ROMEOVILLE IL
1100 AM CDT TUE JUL 22 2014

NOTE: "FAIR" INDICATES FEW OR NO CLOUDS BELOW 12,000 FEET WITH NO
SIGNIFICANT WEATHER AND/OR OBSTRUCTIONS TO VISIBILITY.

* THESE STATIONS ARE NOT UNDER NWS QUALITY CONTROL. THEY ALSO MAY NOT
  REPORT WEATHER SUCH AS PRECIPITATION OR FOG.

ILZ005-006-012>014-019>023-221700-
NORTHEAST ILLINOIS

CITY           SKY/WX    TMP DP  RH WIND       PRES   REMARKS
OHARE          MOSUNNY   83  65  54 SW16G25   30.00S HX  85
MIDWAY         MOSUNNY   84  68  58 SW14G23   30.01S HX  87
AURORA         MOSUNNY   83  69  62 SW14G23   30.03R HX  86
LANSING*       SUNNY     81  66  59 SW17      30.04R HX  83
WAUKEGAN       MOSUNNY   83  67  58 SW17G26   29.98S HX  85
DUPAGE AIRPORT PTSUNNY   83  68  60 SW18      30.02R HX  86
WHEELING       MOSUNNY   84  67  56 SW10      30.01S HX  86
NORTHERLY IS     N/A     81  64  56 SW7         N/A  HX  82
$$

WIZ051-052-058>065-066-070>072-221700-
SOUTHEAST WISCONSIN

CITY           SKY/WX    TMP DP  RH WIND       PRES   REMARKS
MILWAUKEE      MOSUNNY   83  68  60 SW17      29.96S HX  86
KENOSHA*       MOSUNNY   83  69  62 SW17G25   29.97F HX  86
RACINE*        MOSUNNY   84  69  60 SW14G23   29.98S HX  88
$$

INZ001>003-010>013-019-020-221700-
NORTHWEST INDIANA

CITY           SKY/WX    TMP DP  RH WIND       PRES   REMARKS
GARY*          MOSUNNY   82  66  57 SW12G25   30.03S HX  85
MICHIGAN CITY* NOT AVBL
RENSSELAER*    NOT AVBL
VALPARAISO     SUNNY     81  66  60 SW20G25   30.05S HX  83
$$

LMZ740>746-221700-
SOUTHERN LAKE MICHIGAN

STATION/POSITION TIME  SKY/WX   TEMP WIND        PRES    VSBY
                                AIR  DIR/SP/G
                 (UTC)          (F)  (DEG/KT/KT) (MB)    (MI)
HARRISON CRIB    1500            76  210/ 18/ 24   N/A
BURNHAM HARBOR   1600            81  220/  8/ 19   N/A
CALUMET HARBOR   1500            79  200/ 12/ 19 1015.1R
BURNS HARBOR     1600            79  200/ 17/ 22 1016.9S
MICHIGAN CITY    1500            77  170/ 16/ 19   N/A
$$

ABBREVIATIONS USED IN REMARKS
   TC - TEMPERATURE IN CELSIUS
  WCI - WIND CHILL INDEX
   HX - HEAT INDEX
  VSB - VISIBILITY
$$



USA.gov is the U.S. government's official web portal to all federal, state and local government web resources and services.